[[{"header":{"parameterUnit":"m.s-1","parameterCategory":1,"la1":30.2991,"la2":30.254,"lo1":-89.0895,"lo2":-89.0444,"dy":0.0017,"dx":0.0017,"nx":28,"ny":28,"refTime":"2024-04-14T21:00:00:Z","depth":0,"parameterNumber":2,"parameterNumberName":"U-component_of_WINDS"},"data":[0,0,0,0,0,0,0,0,0,0,0,0,0,0,0,0,0,0,0,0,0,0,0,0,0,0,0,0,0,0,0,0,0,0,0,0,0,0,0,0,0,0,0,0,0,0,0,0,0,0,0,0,0,0,0,0,0,0,-1.0818,-1.0818,0,-1.0756,-1.0755,-1.0754,-1.0699,-1.0698,-1.0698,-1.0697,-1.0633,-1.0632,-1.0631,0,0,0,0,0,0,0,0,0,0,0,0,0,-1.0892,-1.0891,-1.0818,-1.0818,-1.0817,-1.0756,-1.0755,-1.0754,-1.0699,-1.0698,-1.0698,-1.0697,-1.0634,-1.0632,-1.0631,0,0,0,0,0,0,0,0,0,0,0,0,0,-1.0848,-1.089,-1.0819,-1.0782,-1.0778,-1.0756,-1.0755,-1.0754,-1.0699,-1.0698,-1.0697,-1.0697,-1.0634,-1.0632,-1.0631,-1.064,0,0,-1.0626,-1.0625,0,0,0,0,0,0,0,0,-1.085,-1.0845,-1.0788,-1.0785,-1.078,-1.0734,-1.0757,-1.0716,-1.07,-1.0729,-1.0697,-1.0696,-1.0668,-1.0663,-1.0653,-1.0637,-1.0634,-1.0626,-1.0624,-1.0624,-1.0623,0,0,0,0,0,0,0,-1.0853,-1.0847,-1.0794,-1.0788,-1.0783,-1.0769,-1.0762,-1.0749,-1.0705,-1.0727,-1.0722,-1.0716,-1.0665,-1.0655,-1.0652,-1.0633,-1.0626,-1.0624,-1.0623,-1.0622,-1.0622,-1.0622,0,0,0,0,0,0,-1.0862,-1.085,-1.0796,-1.0792,-1.0814,-1.0769,-1.0761,-1.075,-1.0705,-1.0697,-1.0717,-1.0713,-1.0659,-1.0654,-1.0649,-1.0657,-1.0624,-1.0622,-1.0621,-1.0621,-1.0622,-1.0623,0,0,0,0,0,0,-1.0864,-1.0858,-1.0798,-1.082,-1.0811,-1.0769,-1.0757,-1.0749,-1.0739,-1.0697,-1.0689,-1.0715,-1.0658,-1.0651,-1.0643,-1.0654,-1.0621,-1.062,-1.0619,-1.0621,-1.0622,-1.0673,0,0,0,0,0,0,-1.0866,-1.0858,-1.0861,-1.082,-1.081,-1.0793,-1.0758,-1.0749,-1.0736,-1.0732,-1.0693,-1.0686,-1.0656,-1.0645,-1.0641,-1.0651,-1.0619,-1.0618,-1.062,-1.0622,-1.067,-1.0676,-1.0681,0,0,0,0,0,-1.0869,-1.0878,-1.0861,-1.0855,-1.0813,-1.0793,-1.0788,-1.0754,-1.0738,-1.074,-1.0713,-1.0687,-1.0654,-1.0645,-1.064,-1.0649,-1.0617,-1.062,-1.0622,-1.0668,-1.0675,-1.0681,0,0,0,0,0,0,-1.0921,-1.0872,-1.0853,-1.0849,-1.0826,-1.0784,-1.0786,-1.0762,-1.0743,-1.0739,-1.0698,-1.069,-1.0686,-1.0667,-1.0658,-1.0656,-1.0632,-1.0633,-1.0669,-1.0675,-1.0681,-1.0685,-1.0617,0,0,0,0,0,-1.0932,-1.092,-1.0878,-1.0878,-1.0867,-1.0829,-1.0819,-1.0795,-1.077,-1.076,-1.0732,-1.0708,-1.0692,-1.0683,-1.0666,-1.0667,-1.0658,-1.0671,-1.0677,-1.0682,-1.0683,-1.0683,-1.0688,-1.063,-1.063,-1.063,0,0,-1.0954,-1.0926,-1.0921,-1.0888,-1.0867,-1.0856,-1.0821,-1.0811,-1.0802,-1.0758,-1.0748,-1.0727,-1.0698,-1.0695,-1.0692,-1.0678,-1.0697,-1.0684,-1.0689,-1.0687,-1.0686,-1.0691,-1.0696,-1.0632,-1.0631,-1.0631,0,0,-1.0989,-1.0967,-1.0965,-1.0945,-1.0914,-1.0888,-1.0888,-1.085,-1.0835,-1.0825,-1.0791,-1.0781,-1.0755,-1.0735,-1.0722,-1.0752,-1.0727,-1.0748,-1.0776,-1.0777,-1.0781,-1.0785,-1.0796,-1.08,-1.0749,-1.075,-1.075,0,-1.1021,-1.1002,-1.0967,-1.0959,-1.0945,-1.0905,-1.0904,-1.0886,-1.0852,-1.0844,-1.0829,-1.0796,-1.0774,-1.0766,-1.0773,-1.0764,-1.0762,-1.0752,-1.0783,-1.0787,-1.079,-1.08,-1.0804,-1.0752,-1.0752,-1.0752,-1.0751,0,-1.1043,-1.1031,-1.1034,-1.1002,-1.0989,-1.0984,-1.0948,-1.0939,-1.0917,-1.0894,-1.0884,-1.0856,-1.0833,-1.083,-1.0807,-1.0819,-1.0811,-1.0791,-1.0766,-1.0799,-1.0808,-1.0811,-1.0756,-1.0755,-1.0754,-1.0754,0,0,-1.1108,-1.1057,-1.1058,-1.1044,-1.1007,-1.0998,-1.0992,-1.097,-1.0963,-1.0941,-1.0935,-1.0915,-1.0896,-1.0881,-1.0857,-1.0857,-1.0883,-1.0837,-1.0835,-1.0846,-1.0895,-1.091,-1.0915,-1.0867,-1.0868,-1.0868,-1.0897,0,-1.1137,-1.1123,-1.1092,-1.1088,-1.1077,-1.1039,-1.1034,-1.1012,-1.099,-1.0978,-1.0954,-1.094,-1.0916,-1.0907,-1.0906,-1.0881,-1.0892,-1.0878,-1.0861,-1.0861,-1.0869,-1.0919,-1.0935,-1.0964,-1.09,-1.0901,-1.0901,0,-1.1169,-1.1149,-1.1145,-1.111,-1.1104,-1.11,-1.1078,-1.1066,-1.1041,-1.1025,-1.1009,-1.0983,-1.0975,-1.0952,-1.0941,-1.0932,-1.0924,-1.091,-1.0911,-1.0907,-1.0883,-1.0917,-1.0972,-1.0976,-1.0906,-1.0906,-1.0905,0,-1.1217,-1.119,-1.1183,-1.1172,-1.1131,-1.1129,-1.1112,-1.1086,-1.1075,-1.1056,-1.1048,-1.1028,-1.1018,-1.1003,-1.0972,-1.0959,-1.0965,-1.0939,-1.0952,-1.0953,-1.0954,-1.0954,-1.1008,-1.0949,-1.0949,-1.0949,-1.0949,0,-1.1252,-1.1251,-1.1204,-1.1201,-1.1198,-1.1162,-1.1161,-1.1141,-1.1118,-1.111,-1.1077,-1.107,-1.103,-1.1018,-1.0994,-1.0989,-1.0984,-1.0972,-1.0965,-1.0974,-1.0976,-1.0968,-1.0965,-1.095,-1.095,-1.095,-1.095,0,-1.1305,-1.1274,-1.1265,-1.1227,-1.1218,-1.1218,-1.1186,-1.1181,-1.1158,-1.1149,-1.1144,-1.1108,-1.1093,-1.1061,-1.1038,-1.1022,-1.1022,-1.1011,-1.1031,-1.1027,-1.1041,-1.104,-1.1091,-1.1096,-1.1035,-1.1035,-1.1036,0,-1.133,-1.1328,-1.129,-1.1283,-1.1267,-1.1255,-1.1244,-1.1209,-1.1199,-1.117,-1.1169,-1.1152,-1.1136,-1.1115,-1.1086,-1.1069,-1.1056,-1.1075,-1.1053,-1.1063,-1.1057,-1.1057,-1.1057,-1.108,-1.1081,-1.1082,-1.1082,0,-1.1377,-1.1362,-1.1347,-1.1327,-1.1315,-1.1297,-1.1278,-1.1274,-1.1235,-1.1225,-1.121,-1.1198,-1.1174,-1.1158,-1.1136,-1.1119,-1.1094,-1.109,-1.1091,-1.1101,-1.1113,-1.1106,-1.1044,-1.1088,-1.1088,-1.1087,-1.1087,-1.1087,-1.1416,-1.1413,-1.1386,-1.1371,-1.1353,-1.1337,-1.1331,-1.1307,-1.1294,-1.1272,-1.1252,-1.1239,-1.1214,-1.1182,-1.1167,-1.1157,-1.1144,-1.1147,-1.1147,-1.1149,-1.1153,-1.1115,-1.1152,-1.1152,-1.1152,-1.1152,-1.1152,0,-1.1462,-1.1443,-1.1429,-1.1404,-1.1392,-1.1371,-1.1349,-1.1341,-1.1329,-1.1308,-1.1294,-1.1277,-1.1261,-1.1232,-1.1214,-1.1211,-1.1199,-1.1207,-1.1207,-1.1204,-1.1165,-1.1165,-1.1217,-1.1217,-1.1217,-1.1217,-1.1217,-1.1217,-1.1484,-1.1478,-1.146,-1.1445,-1.1426,-1.1413,-1.1402,-1.1387,-1.137,-1.1352,-1.1339,-1.132,-1.1296,-1.1277,-1.1261,-1.1253,-1.1248,-1.126,-1.1248,-1.1212,-1.1206,-1.12,-1.12,-1.1259,-1.1259,-1.1288,-1.1288,-1.1288]},{"header":{"parameterUnit":"m.s-1","parameterCategory":1,"la1":30.2991,"la2":30.254,"lo1":-89.0895,"lo2":-89.0444,"dy":0.0017,"dx":0.0017,"nx":28,"ny":28,"refTime":"2024-04-14T21:00:00:Z","depth":0,"parameterNumber":3,"parameterNumberName":"V-component_of_WINDS"},"data":[0,0,0,0,0,0,0,0,0,0,0,0,0,0,0,0,0,0,0,0,0,0,0,0,0,0,0,0,0,0,0,0,0,0,0,0,0,0,0,0,0,0,0,0,0,0,0,0,0,0,0,0,0,0,0,0,0,0,4.162,4.1619,0,4.1507,4.1505,4.1504,4.1483,4.1484,4.1485,4.1486,4.1364,4.136,4.1356,0,0,0,0,0,0,0,0,0,0,0,0,0,4.1816,4.1812,4.162,4.1619,4.1618,4.1507,4.1505,4.1504,4.1483,4.1484,4.1485,4.1487,4.1365,4.1361,4.1356,0,0,0,0,0,0,0,0,0,0,0,0,0,4.1719,4.1811,4.1621,4.1594,4.1591,4.1507,4.1505,4.1503,4.1483,4.1484,4.1486,4.1487,4.1367,4.1361,4.1355,4.1288,0,0,4.1336,4.1333,0,0,0,0,0,0,0,0,4.1725,4.1712,4.1599,4.1596,4.1592,4.1511,4.1529,4.1431,4.1483,4.1524,4.1486,4.1488,4.1411,4.1402,4.1377,4.1282,4.1277,4.1335,4.1332,4.1329,4.1327,0,0,0,0,0,0,0,4.1731,4.1717,4.1575,4.1598,4.1593,4.1587,4.1574,4.1511,4.1461,4.152,4.1518,4.1506,4.1409,4.1383,4.1374,4.1275,4.1336,4.133,4.1326,4.1324,4.1123,4.1121,0,0,0,0,0,0,4.1743,4.1722,4.1579,4.1572,4.1663,4.1582,4.1568,4.1535,4.1461,4.1452,4.1504,4.1505,4.1393,4.1381,4.137,4.1288,4.1329,4.1323,4.132,4.1124,4.1122,4.112,0,0,0,0,0,0,4.1748,4.1731,4.1583,4.1647,4.1627,4.1577,4.154,4.1532,4.1506,4.145,4.144,4.1487,4.1394,4.1378,4.1309,4.1283,4.132,4.1315,4.1126,4.1124,4.1121,4.1124,0,0,0,0,0,0,4.1753,4.1733,4.1707,4.1646,4.1624,4.1526,4.1538,4.1529,4.1496,4.1496,4.1431,4.1421,4.1393,4.1319,4.1303,4.1276,4.131,4.1128,4.1125,4.1122,4.1126,4.1122,4.1118,0,0,0,0,0,4.176,4.1711,4.1706,4.1689,4.1592,4.1525,4.1512,4.1483,4.1494,4.1468,4.1432,4.1423,4.1289,4.1312,4.1294,4.1264,4.113,4.1126,4.1122,4.1127,4.1123,4.1118,0,0,0,0,0,0,4.1767,4.1702,4.1696,4.1626,4.1582,4.1522,4.1488,4.1478,4.1428,4.143,4.1394,4.1379,4.1313,4.1281,4.1308,4.1197,4.121,4.1203,4.122,4.1215,4.1211,4.122,4.1305,0,0,0,0,0,4.1761,4.1714,4.1659,4.1602,4.158,4.1538,4.1507,4.1489,4.1441,4.1421,4.138,4.1332,4.128,4.1245,4.1193,4.1121,4.1107,4.1092,4.1088,4.1086,4.108,4.1041,4.1034,4.1108,4.1108,4.1108,0,0,4.1747,4.1706,4.1677,4.1602,4.1566,4.1516,4.1522,4.1469,4.1432,4.1412,4.1346,4.1315,4.1259,4.1189,4.1155,4.116,4.1056,4.1081,4.1079,4.1074,4.1036,4.1029,4.1023,4.1106,4.1106,4.1107,0,0,4.1696,4.166,4.161,4.1574,4.1519,4.1492,4.148,4.1422,4.1401,4.1335,4.132,4.1274,4.1184,4.1145,4.1114,4.1051,4.1042,4.1035,4.1015,4.0978,4.0972,4.0967,4.0945,4.0938,4.1029,4.1029,4.1029,0,4.1684,4.1611,4.1584,4.1533,4.1501,4.1484,4.1432,4.1398,4.1329,4.1306,4.1313,4.1201,4.1162,4.1084,4.1069,4.1043,4.1029,4.1042,4.0976,4.097,4.0964,4.0944,4.0936,4.1029,4.1029,4.1029,4.1029,0,4.1601,4.155,4.1516,4.1453,4.1416,4.1365,4.1329,4.1295,4.1281,4.1253,4.1186,4.1139,4.1078,4.1058,4.1042,4.0978,4.0983,4.0983,4.0995,4.0957,4.0938,4.0929,4.1029,4.1029,4.1029,4.1029,0,0,4.1549,4.1474,4.1462,4.1434,4.1374,4.1334,4.1282,4.1225,4.1197,4.115,4.1106,4.1031,4.1032,4.0996,4.0976,4.0943,4.0899,4.0948,4.0946,4.0941,4.0826,4.0827,4.0818,4.0892,4.0891,4.0889,4.0831,0,4.1492,4.1401,4.1376,4.1299,4.1253,4.1237,4.1192,4.115,4.1123,4.1079,4.1047,4.0996,4.1,4.0979,4.0946,4.0911,4.0875,4.0915,4.085,4.0848,4.0865,4.0807,4.0807,4.0755,4.0823,4.0822,4.0821,0,4.1412,4.1367,4.1287,4.1235,4.1214,4.1175,4.1122,4.108,4.1032,4.1014,4.0976,4.096,4.0905,4.0921,4.0844,4.0872,4.0844,4.0823,4.0821,4.0813,4.0832,4.0799,4.0737,4.0729,4.0808,4.0809,4.081,0,4.1384,4.1303,4.1245,4.1221,4.1159,4.1132,4.1104,4.1058,4.1026,4.0979,4.0959,4.0905,4.0876,4.0834,4.0804,4.0818,4.073,4.0743,4.0714,4.0715,4.0696,4.0698,4.0629,4.0677,4.0678,4.0678,4.0678,0,4.1323,4.1274,4.1232,4.1196,4.1141,4.1113,4.1059,4.1031,4.099,4.0948,4.093,4.0891,4.0853,4.0808,4.0783,4.0725,4.0711,4.0695,4.0689,4.0697,4.0699,4.0678,4.0681,4.0676,4.0676,4.0676,4.0677,0,4.1282,4.1252,4.1188,4.1136,4.1121,4.1083,4.1038,4.1002,4.0976,4.0923,4.0908,4.0866,4.0812,4.0778,4.0709,4.0693,4.0629,4.0623,4.0646,4.0643,4.0616,4.0619,4.0532,4.0519,4.0576,4.0575,4.0575,0,4.1245,4.1208,4.1153,4.1125,4.1098,4.1052,4.1021,4.0992,4.0959,4.0904,4.0875,4.0821,4.0776,4.0692,4.0653,4.0601,4.0595,4.0568,4.0587,4.0596,4.0595,4.0598,4.0595,4.0565,4.0564,4.0564,4.0564,0,4.1183,4.1171,4.1127,4.1079,4.1043,4.1003,4.0962,4.094,4.0903,4.0868,4.0815,4.078,4.0712,4.0659,4.0604,4.0574,4.0563,4.0558,4.0549,4.0556,4.0571,4.0564,4.0638,4.056,4.056,4.0561,4.0561,4.0561,4.1143,4.1111,4.1068,4.102,4.0988,4.0951,4.0916,4.0886,4.0842,4.0786,4.0771,4.0716,4.067,4.0595,4.0565,4.052,4.0523,4.0509,4.0506,4.0503,4.0504,4.0579,4.051,4.051,4.051,4.051,4.051,0,4.1082,4.1054,4.1011,4.0957,4.092,4.0915,4.0871,4.0839,4.0792,4.0751,4.0709,4.0648,4.0597,4.0557,4.0504,4.0476,4.047,4.0464,4.0465,4.0459,4.0503,4.0517,4.047,4.047,4.047,4.047,4.047,4.047,4.1045,4.099,4.0973,4.0901,4.0873,4.0821,4.0797,4.0763,4.0731,4.0665,4.0624,4.0598,4.0558,4.0502,4.0455,4.0445,4.0426,4.0421,4.0409,4.0451,4.0456,4.046,4.0473,4.0417,4.0417,4.0369,4.0368,4.0368]}]]